Location: Unspecified
(0.0000°N, 0.0000°E)
Time: 05:02:26
(UTC+01:00)

Meteor PRIRODA - Visible Passes

Search period start: 31 October 2014 00:00
Search period end: 10 November 2014 00:00
Orbit: 508 x 533 km, 97.3° (Epoch: 29 October)

Date Brightness Start Highest point End Pass type
(mag) Time Alt. Az. Time Alt. Az. Time Alt. Az.
31 Oct 6.1 05:08:15 10° NE 05:11:17 24° ESE 05:14:19 10° SSE visible
01 Nov 6.8 04:55:46 10° ENE 04:57:56 15° ESE 05:00:07 10° SE visible
02 Nov 4.8 06:15:28 10° NNW 06:18:28 24° W 06:21:30 10° SW visible
03 Nov 4.1 06:01:38 10° N 06:05:06 38° W 06:08:36 10° SSW visible
04 Nov 3.6 05:48:02 10° N 05:51:42 67° W 05:55:26 10° SSW visible
05 Nov 3.9 05:34:37 10° NNE 05:38:19 71° E 05:42:03 10° S visible
06 Nov 5.1 05:21:24 10° NNE 05:24:55 40° E 05:28:27 10° S visible
07 Nov 6.1 05:08:26 10° NE 05:11:30 25° ESE 05:14:36 10° SSE visible
08 Nov 6.8 04:55:49 10° ENE 04:58:05 16° ESE 05:00:22 10° SE visible
09 Nov 4.8 06:15:33 10° NNW 06:18:32 23° W 06:21:34 10° SW visible
